Year,Month,Day,Hour,Minute,Value (Times are PST for temperature in C)
2017,09,05,14,49,21.30
2017,09,05,14,50,21.30
2017,09,05,14,51,21.40
2017,09,05,14,52,21.50
2017,09,05,14,53,21.60
2017,09,05,14,54,21.60
2017,09,05,14,55,21.70
2017,09,05,14,56,21.80
2017,09,05,14,57,21.90
2017,09,05,14,58,22.00
2017,09,05,14,59,22.10
2017,09,05,15,00,22.20
2017,09,05,15,01,22.30
2017,09,05,15,02,22.40
2017,09,05,15,03,22.60
2017,09,05,15,04,22.70
2017,09,05,15,05,22.80
2017,09,05,15,06,22.90
2017,09,05,15,07,23.00
2017,09,05,15,08,23.10
2017,09,05,15,09,23.20
2017,09,05,15,10,23.30
2017,09,05,15,11,23.40
2017,09,05,15,12,23.40
2017,09,05,15,13,23.50
2017,09,05,15,14,23.60
2017,09,05,15,15,23.50
2017,09,05,15,16,23.50
2017,09,05,15,17,23.50
2017,09,05,15,18,23.50
2017,09,05,15,19,23.50
2017,09,05,15,20,23.60
2017,09,05,15,21,23.60
2017,09,05,15,22,23.70
2017,09,05,15,23,23.70
2017,09,05,15,24,23.80
2017,09,05,15,25,23.90
2017,09,05,15,26,24.00
2017,09,05,15,27,24.20
2017,09,05,15,28,24.30
2017,09,05,15,29,24.40
2017,09,05,15,30,24.50
2017,09,05,15,31,24.60
2017,09,05,15,32,24.70
2017,09,05,15,33,24.80
2017,09,05,15,34,24.90
2017,09,05,15,35,24.90
2017,09,05,15,36,24.90
2017,09,05,15,37,24.90
2017,09,05,15,38,24.90
2017,09,05,15,39,24.80
2017,09,05,15,40,24.70
2017,09,05,15,41,24.60
2017,09,05,15,42,24.50
2017,09,05,15,43,24.40
2017,09,05,15,44,24.30
2017,09,05,15,45,24.20
2017,09,05,15,46,24.10
2017,09,05,15,47,24.10
2017,09,05,15,48,24.00
2017,09,05,15,49,24.00
2017,09,05,15,50,23.90
2017,09,05,15,51,23.90
2017,09,05,15,52,23.90
2017,09,05,15,53,23.90
2017,09,05,15,54,23.90
2017,09,05,15,55,23.90
2017,09,05,15,56,23.90
2017,09,05,15,57,23.90
2017,09,05,15,58,24.00
2017,09,05,15,59,24.00
2017,09,05,16,00,24.10
2017,09,05,16,01,24.10
2017,09,05,16,02,24.10
2017,09,05,16,03,24.20
2017,09,05,16,04,24.20
2017,09,05,16,05,24.20
2017,09,05,16,06,24.20
2017,09,05,16,07,24.20
2017,09,05,16,08,24.20
2017,09,05,16,09,24.20
2017,09,05,16,10,24.20
2017,09,05,16,11,24.10
2017,09,05,16,12,24.10
2017,09,05,16,13,24.10
2017,09,05,16,14,24.10
2017,09,05,16,15,24.10
2017,09,05,16,16,24.10
2017,09,05,16,17,24.10
2017,09,05,16,18,24.20
2017,09,05,16,19,24.20
2017,09,05,16,20,24.20
2017,09,05,16,21,24.20
2017,09,05,16,22,24.20
2017,09,05,16,23,24.20
2017,09,05,16,24,24.20
2017,09,05,16,25,24.20
2017,09,05,16,26,24.20
2017,09,05,16,27,24.10
2017,09,05,16,28,24.10
2017,09,05,16,29,24.10
2017,09,05,16,30,24.10
2017,09,05,16,31,24.10
2017,09,05,16,32,24.10
2017,09,05,16,33,24.20
2017,09,05,16,34,24.20
2017,09,05,16,35,24.30
2017,09,05,16,36,24.40
2017,09,05,16,37,24.50
2017,09,05,16,38,24.50
2017,09,05,16,39,24.50
2017,09,05,16,40,24.50
2017,09,05,16,41,24.40
2017,09,05,16,42,24.40
2017,09,05,16,43,24.40
2017,09,05,16,44,24.30
2017,09,05,16,45,24.30
2017,09,05,16,46,24.30
2017,09,05,16,47,24.20
2017,09,05,16,48,24.10
2017,09,05,16,49,23.90
2017,09,05,16,50,23.70
2017,09,05,16,51,23.50
2017,09,05,16,52,23.30
2017,09,05,16,53,23.20
2017,09,05,16,54,23.00
2017,09,05,16,55,22.90
2017,09,05,16,56,22.70
2017,09,05,16,57,22.50
2017,09,05,16,58,22.20
2017,09,05,16,59,22.00
2017,09,05,17,00,21.80
2017,09,05,17,01,21.60
2017,09,05,17,02,21.50
2017,09,05,17,03,21.50
2017,09,05,17,04,21.40
2017,09,05,17,05,21.30
2017,09,05,17,06,21.20
2017,09,05,17,07,20.90
2017,09,05,17,08,20.70
2017,09,05,17,09,20.50
2017,09,05,17,10,20.40
2017,09,05,17,11,20.30
2017,09,05,17,12,20.20
2017,09,05,17,13,20.10
2017,09,05,17,14,20.00
2017,09,05,17,15,19.80
2017,09,05,17,16,19.60
2017,09,05,17,17,19.40
2017,09,05,17,18,19.20
2017,09,05,17,19,19.10
2017,09,05,17,20,19.00
2017,09,05,17,21,19.00
2017,09,05,17,22,18.90
2017,09,05,17,23,18.90
2017,09,05,17,24,18.90
2017,09,05,17,25,18.90
2017,09,05,17,26,19.00
2017,09,05,17,27,19.00
2017,09,05,17,28,19.00
2017,09,05,17,29,19.10
2017,09,05,17,30,19.10
2017,09,05,17,31,19.20
2017,09,05,17,32,19.20
2017,09,05,17,33,19.20
2017,09,05,17,34,19.30
2017,09,05,17,35,19.30
2017,09,05,17,36,19.30
2017,09,05,17,37,19.30
2017,09,05,17,38,19.30
2017,09,05,17,39,19.40
2017,09,05,17,40,19.40
2017,09,05,17,41,19.50
2017,09,05,17,42,19.50
2017,09,05,17,43,19.60
2017,09,05,17,44,19.60
2017,09,05,17,45,19.70
2017,09,05,17,46,19.80
2017,09,05,17,47,19.80
2017,09,05,17,48,19.80
2017,09,05,17,49,19.90
2017,09,05,17,50,20.00
2017,09,05,17,51,20.10
2017,09,05,17,52,20.10
2017,09,05,17,53,20.10
2017,09,05,17,54,20.20
2017,09,05,17,55,20.20
2017,09,05,17,56,20.20
2017,09,05,17,57,20.20
2017,09,05,17,58,20.30
2017,09,05,17,59,20.30
2017,09,05,18,00,20.30
2017,09,05,18,01,20.30
2017,09,05,18,02,20.30
2017,09,05,18,03,20.40
2017,09,05,18,04,20.40
2017,09,05,18,05,20.40
2017,09,05,18,06,20.40
2017,09,05,18,07,20.40
2017,09,05,18,08,20.40
2017,09,05,18,09,20.40
2017,09,05,18,10,20.40
2017,09,05,18,11,20.40
2017,09,05,18,12,20.40
2017,09,05,18,13,20.30
2017,09,05,18,14,20.30
2017,09,05,18,15,20.30
2017,09,05,18,16,20.30
2017,09,05,18,17,20.20
2017,09,05,18,18,20.20
2017,09,05,18,19,20.10
2017,09,05,18,20,20.10
2017,09,05,18,21,20.10
2017,09,05,18,22,20.10
2017,09,05,18,23,20.10
2017,09,05,18,24,20.10
2017,09,05,18,25,20.10
2017,09,05,18,26,20.10
2017,09,05,18,27,20.10
2017,09,05,18,28,20.10
2017,09,05,18,29,20.20
2017,09,05,18,30,20.20
2017,09,05,18,31,20.20
2017,09,05,18,32,20.20
2017,09,05,18,33,20.20
2017,09,05,18,34,20.20
2017,09,05,18,35,20.30
2017,09,05,18,36,20.30
2017,09,05,18,37,20.30
2017,09,05,18,38,20.30
2017,09,05,18,39,20.30
2017,09,05,18,40,20.30
2017,09,05,18,41,20.30
2017,09,05,18,42,20.30
2017,09,05,18,43,20.30
2017,09,05,18,44,20.40
2017,09,05,18,45,20.40
2017,09,05,18,46,20.40
2017,09,05,18,47,20.40
2017,09,05,18,48,20.40
2017,09,05,18,49,20.40
2017,09,05,18,50,20.50
2017,09,05,18,51,20.50
2017,09,05,18,52,20.50
2017,09,05,18,53,20.50
2017,09,05,18,54,20.50
2017,09,05,18,55,20.50
2017,09,05,18,56,20.50
2017,09,05,18,57,20.60
2017,09,05,18,58,20.60
2017,09,05,18,59,20.60
2017,09,05,19,00,20.60
2017,09,05,19,01,20.60
2017,09,05,19,02,20.60
2017,09,05,19,03,20.60
2017,09,05,19,04,20.60
2017,09,05,19,05,20.60
2017,09,05,19,06,20.60
2017,09,05,19,07,20.60
2017,09,05,19,08,20.60
2017,09,05,19,09,20.60
2017,09,05,19,10,20.60
2017,09,05,19,11,20.60
2017,09,05,19,12,20.60
2017,09,05,19,13,20.60
2017,09,05,19,14,20.60
2017,09,05,19,15,20.50
2017,09,05,19,16,20.40
2017,09,05,19,17,20.40
2017,09,05,19,18,20.30
2017,09,05,19,19,20.20
2017,09,05,19,20,20.20
2017,09,05,19,21,20.20
2017,09,05,19,22,20.20
2017,09,05,19,23,20.20
2017,09,05,19,24,20.20
2017,09,05,19,25,20.20
2017,09,05,19,26,20.20
2017,09,05,19,27,20.20
2017,09,05,19,28,20.20
2017,09,05,19,29,20.20
2017,09,05,19,30,20.20
